SCP
0 0 0 0 0 0 0 0 0 0 0 0 0 0 0 0 0 0 0 0 0 0 0 -0 -0 -0 -0 -0 0 0 0 0 0 0 0 0 0 0 0 0 0 0 0 0 0 0 0 0 0 0 0 0 0 0
0 0 0 0 0 0 0 0 0 0 0 0 0 0 0 0 0 0 0 0 0 0 0 -0 0 0 0 0 0 0 0 0 0 0 0 0 0 0 0 0 0 0 0 0 0 0 0 0 0 0 0 0 0 0
0 0 0 0 0 0 0 0 0 0 0 0 0 0 -0 0 0 0 0 0 0 0 -0 0 0 0 0 0 0 0 0 0 0 0 0 0 0 0 0 0 0 0 0 0 0 0 0 0 0 0 0 0 0 0
0 0 0 0 0 0 0 0 0 0 0 0 0 0 0 -0 0 0 0 0 0 0 0 -0 0 0 0 0 0 0 0 0 0 0 0 0 0 0 0 0 0 0 0 0 0 0 0 0 0 0 0 0 0 0
0 0 0 0 0 0 0 0 0 0 0 0 0 0 0 0 -0 0 0 0 0 0 0 0 0 -0 0 0 0 0 0 0 0 0 0 0 0 0 0 0 0 0 0 0 0 0 0 0 0 0 0 0 0 0
0 0 0 0 0 0 0 0 0 0 0 0 0 0 0 0 0 0 0 0 0 0 0 0 0 0 -0 0 -0 0 0 0 0 0 0 0 0 0 0 -0 -0 0 0 0 0 0 0 0 0 0 0 0 0 0
0 0 0 0 0 0 0 0 0 0 0 0 0 0 0 0 0 0 0 0 0 0 0 0 0 0 0 -0 -0 0 0 0 0 0 0 0 0 -0 -0 0 0 0 0 0 0 0 0 0 0 0 0 0 0 0
0 0 0 0 0 0 0 0 0 0 0 0 0 0 0 0 0 0 0 0 0 0 0 0 0 0 -0 -0 -0 -0 -0 -0 0 0 0 0 0 0 -0 -0 0 0 0 0 0 0 0 0 0 0 0 0 0 0
0 0 0 0 0 0 0 0 0 0 0 0 0 0 0 0 0 0 0 0 0 0 0 0 0 0 -0 -0 -0 -0 -0 -0 0 -0 0 0 0 0 0 0 0 0 -0 -0 -0 0 0 0 0 0 0 0 0 0
0 0 0 0 0 0 0 0 0 0 0 0 0 0 0 0 0 0 0 0 0 0 0 0 0 0 -0 -0 -0 0 0 0 0 -0 -0 -0 0 -0 0 0 0 -0 -0 0 0 0 0 0 0 0 0 0 0 0
0 0 0 0 0 0 0 0 0 0 0 0 0 0 0 0 0 0 0 0 0 0 0 0 0 0 -0 -0 -0 -0 0 0 0 0 -0 -0 0 0 0 0 0 0 0 0 0 -0 0 0 0 0 0 0 0 0
0 0 0 0 0 0 0 0 0 0 0 0 0 0 0 0 0 0 0 0 0 0 0 0 0 0 0 -0 0 0 0 0 0 0 0 0 0 0 0 0 0 0 0 0 0 0 0 0 0 0 0 0 0 0
0 0 0 0 0 0 0 0 0 0 0 0 0 0 0 0 0 0 0 0 0 0 0 0 0 0 0 0 0 0 0 0 0 0 0 0 0 -0 -0 -0 0 0 0 0 0 0 0 0 0 0 0 0 0 0
0 0 0 0 0 0 0 0 0 0 0 0 0 0 0 0 0 0 0 0 0 0 0 0 0 0 0 0 0 0 0 0 0 0 0 0 -0 -0 -0 -0 -0 0 0 0 0 -0 0 0 0 0 0 0 0 0
0 0 0 0 0 0 0 0 0 0 0 0 0 0 0 0 0 0 0 0 0 0 0 0 0 0 0 0 0 0 0 0 0 0 0 0 0 0 0 0 -0 -0 0 0 0 0 0 1 0 0 0 0 0 0
-0 0 0 0 0 0 0 0 0 0 0 0 0 0 0 0 0 0 0 0 0 0 0 0 0 0 0 0 0 0 0 0 0 0 0 0 0 0 0 -0 -0 0 0 0 0 1 1 1 0 0 0 0 0 0
0 0 0 -0 0 0 0 0 0 0 0 0 0 0 0 0 0 0 0 0 0 0 0 0 0 0 0 0 0 0 0 0 0 0 0 0 0 -0 0 0 0 0 -0 -0 0 1 1 0 0 0 0 0 0 0
0 0 -0 0 -0 0 0 0 0 0 0 0 0 0 0 0 0 0 0 0 0 0 0 0 0 0 0 0 0 0 0 0 0 0 0 0 0 -0 -0 -0 0 0 0 -0 -0 0 0 0 0 0 0 0 0 0
0 0 0 0 0 0 0 0 0 0 0 0 0 0 0 0 0 0 0 0 0 0 0 0 0 0 0 0 0 0 0 0 0 0 0 0 0 0 0 -0 -0 -0 -0 0 -0 -0 0 0 0 0 0 0 0 0
0 0 0 0 0 0 0 -0 0 0 0 0 0 0 0 0 0 0 0 0 0 0 0 -0 -0 0 0 0 0 0 0 0 0 0 0 0 0 0 0 0 0 0 -0 0 0 -0 0 0 0 0 0 0 0 0
0 0 0 0 0 0 0 -0 0 0 0 0 0 0 0 0 0 0 0 0 0 0 0 -0 -0 0 0 0 0 0 0 0 0 0 0 0 0 0 0 0 0 0 0 0 0 -0 0 0 -0 0 0 0 0 0
0 0 0 0 0 0 0 0 0 0 0 0 0 -0 0 0 0 0 0 0 0 0 0 0 0 -0 0 0 0 0 0 0 0 0 0 0 0 0 0 0 0 0 0 0 0 0 0 -0 0 0 -0 -0 0 0
0 0 0 0 0 0 0 0 0 0 0 -0 -0 0 -0 0 0 0 0 0 0 0 0 0 0 -0 -0 -0 0 0 0 0 0 0 0 0 0 0 0 0 -0 -0 0 0 0 0 0 -0 -0 0 0 -0 0 0
0 0 0 0 0 0 0 0 0 0 0 0 0 0 -0 0 0 0 0 0 0 0 0 0 0 0 0 -0 -0 0 0 0 0 0 0 0 0 0 0 0 0 0 -0 -0 -0 0 0 0 0 0 0 0 0 0
0 -0 0 0 0 0 0 0 0 0 0 0 0 0 0 0 0 0 0 0 0 0 0 0 0 0 0 0 0 -0 0 0 0 0 0 0 0 0 0 0 0 -0 -0 -0 -0 0 0 0 0 0 0 0 0 0
0 0 -0 -0 0 0 0 0 0 0 0 0 0 -0 -0 -0 -0 -0 -0 0 0 0 0 0 0 0 0 0 0 -0 -0 0 0 0 0 0 0 0 0 0 0 0 0 -0 -0 0 0 0 0 0 0 0 0 0
0 0 0 0 0 0 0 0 0 0 0 0 0 -0 -0 0 -0 -0 0 0 0 0 0 0 0 0 0 0 0 0 0 0 0 0 0 0 0 0 0 0 0 0 0 0 0 0 0 0 0 0 0 0 0 0
0 0 0 0 0 0 0 0 0 0 0 0 0 0 0 -0 -0 0 0 0 0 0 0 0 0 0 0 0 0 0 -0 -0 0 0 0 0 0 0 0 0 0 0 0 0 0 0 0 0 0 0 0 0 0 0
0 0 0 0 0 0 0 0 0 0 0 0 0 0 0 -0 -0 0 0 0 0 0 0 0 0 0 0 0 0 0 0 -0 -0 0 0 0 0 0 0 0 0 0 0 0 0 0 0 0 0 0 0 0 0 0
0 0 0 0 0 0 0 0 0 0 0 0 0 0 0 -0 0 0 0 0 0 0 0 0 0 0 0 0 0 0 0 0 -0 -0 -0 -0 -0 0 0 0 0 0 0 0 0 0 0 0 0 0 0 0 -0 -0
0 0 0 0 0 0 0 0 0 0 0 0 -0 0 0 0 0 0 0 0 0 0 0 0 0 0 0 0 0 0 0 0 0 -0 -0 -0 -0 -0 0 0 0 0 0 0 0 0 0 0 0 0 0 0 0 -0
0 0 0 0 0 0 0 0 0 0 0 0 0 0 0 0 0 0 0 0 0 0 0 0 0 0 0 0 0 0 0 0 0 0 0 -0 -0 -0 0 0 0 0 0 0 0 0 0 0 0 0 0 0 0 0
0 0 0 0 0 0 0 0 0 0 0 0 0 0 0 0 0 0 0 0 0 0 0 0 0 0 0 0 0 0 0 0 0 0 0 -0 -0 0 0 0 0 0 0 0 0 0 0 0 0 0 0 0 0 0
Wind_Speed_500mb
57 57 56 56 54 53 52 51 50 49 48 46 41 42 38 34 28 29 24 15 24 18 50 60 36 29 33 15 2 26 20 17 12 12 8 7 6 7 9 8 12 3 6 5 5 6 8 61 21 15 9 18 25 49
61 60 58 58 57 56 55 54 52 51 51 48 46 37 39 34 27 27 26 7 18 35 38 35 52 58 52 47 37 10 13 16 4 7 6 4 6 7 9 6 11 6 8 7 6 7 9 41 34 39 42 35 51 48
64 63 61 59 57 56 57 55 55 53 53 52 48 37 38 29 27 27 28 18 23 26 53 36 28 15 25 31 37 19 17 8 9 6 5 4 3 4 6 6 9 12 19 4 11 8 23 53 64 83 69 60 59 52
67 65 62 59 57 55 55 54 54 54 53 50 45 36 32 30 26 28 28 13 15 13 9 20 25 28 23 31 23 42 42 28 34 20 3 3 2 3 4 8 3 9 21 11 11 16 45 45 76 77 71 72 62 50
68 65 62 59 56 53 52 51 51 50 49 48 41 31 30 29 25 28 29 25 29 20 8 32 66 27 23 28 29 20 35 47 49 11 4 6 8 6 9 3 7 11 6 5 7 17 7 42 73 67 65 67 68 60
70 64 59 57 55 50 48 48 47 45 46 48 37 34 34 30 21 21 7 4 25 28 13 7 22 42 19 32 32 38 40 42 48 25 12 14 31 14 7 6 13 2 28 47 15 51 57 64 61 58 71 59 66 59
68 63 57 53 52 48 45 44 43 42 42 43 43 40 29 22 23 21 7 12 11 13 6 10 13 13 30 4 27 28 40 37 34 44 23 25 36 24 6 24 40 50 52 47 42 53 61 58 62 73 63 56 61 48
65 63 58 51 47 46 43 41 39 39 41 43 42 28 18 14 22 29 33 22 12 8 8 5 8 13 13 8 6 30 27 37 44 34 28 21 13 15 12 22 58 59 52 57 60 53 59 56 62 62 56 57 57 49
64 62 54 45 43 42 38 37 37 38 37 31 22 16 5 4 8 13 19 17 25 20 6 7 3 6 10 8 11 5 7 2 11 7 15 12 11 12 18 44 68 53 32 39 44 46 60 65 60 58 42 45 51 49
60 57 47 45 43 39 39 43 42 40 31 18 16 8 5 4 7 6 5 6 7 10 11 7 8 7 17 11 5 8 3 6 4 10 16 15 32 71 72 71 71 55 46 57 69 64 62 62 56 53 44 49 48 49
55 50 43 41 42 40 40 40 38 37 24 14 11 6 13 6 2 3 3 2 3 6 10 10 18 12 17 2 4 6 4 5 6 8 10 8 11 35 80 85 97 88 78 76 63 60 65 64 67 57 57 57 57 49
50 40 36 39 41 40 41 44 44 41 26 15 16 18 9 4 3 2 2 2 7 5 7 7 11 15 8 7 6 5 4 5 9 12 6 8 6 6 9 23 37 46 65 84 84 88 77 78 67 57 55 60 60 40
50 34 32 34 37 37 40 45 46 45 27 11 11 7 3 4 5 6 8 4 6 11 15 14 7 7 7 9 5 4 6 7 14 6 7 8 25 59 67 62 51 40 40 60 87 75 58 57 53 52 59 60 58 36
47 32 23 25 28 37 41 44 51 39 16 12 12 12 8 9 9 5 6 10 11 12 16 13 4 8 8 5 4 5 2 4 6 6 8 12 72 84 85 74 49 50 35 34 62 62 72 52 48 49 47 39 37 61
44 29 18 19 24 35 38 42 43 34 14 14 11 12 7 16 26 32 28 31 23 6 23 6 4 4 4 3 2 5 4 6 5 7 7 52 73 55 5 24 40 37 23 13 33 61 58 50 35 33 27 37 54 67
40 25 23 21 24 29 31 31 28 21 10 12 13 10 31 16 24 42 54 55 55 8 20 8 4 4 5 4 5 7 10 11 12 8 36 57 79 73 62 35 19 19 18 22 25 31 43 43 42 41 41 44 48 56
34 23 26 26 27 22 21 16 12 14 14 7 10 21 30 31 34 40 45 53 50 31 7 8 13 12 6 9 9 5 2 2 24 40 38 62 76 81 86 70 59 56 54 54 55 62 65 64 65 60 58 56 59 55
35 26 22 23 28 9 9 3 2 8 7 5 8 30 35 45 48 53 55 55 41 38 14 8 9 13 11 16 15 16 22 23 23 21 33 42 45 72 88 86 80 71 76 75 74 65 62 57 57 45 44 35 41 43
29 15 14 19 20 9 4 2 3 9 8 6 10 28 37 42 43 47 49 46 55 41 19 11 11 10 9 13 20 34 38 46 45 57 67 55 66 86 73 59 69 73 79 71 74 70 63 62 53 49 41 43 43 38
20 9 17 15 14 6 5 2 4 4 7 12 23 27 26 31 45 47 54 55 41 41 30 13 15 27 35 51 46 48 54 53 50 36 55 59 62 68 76 65 75 68 54 48 48 49 47 45 50 56 39 39 45 37
14 14 16 10 3 5 8 13 8 11 9 8 19 14 20 31 41 50 57 50 42 31 25 43 56 63 67 62 46 52 57 59 61 51 47 55 53 68 72 68 67 70 66 65 60 53 46 43 19 15 18 25 30 34
22 13 7 7 4 3 3 11 11 20 15 15 6 10 16 20 37 36 42 34 23 28 38 47 43 55 60 63 66 57 58 58 59 52 49 52 64 67 70 71 74 72 69 70 70 66 60 49 33 36 47 41 20 21
17 12 8 7 3 6 7 17 7 8 8 11 14 9 2 5 21 21 12 20 18 42 60 61 53 47 52 55 57 57 55 60 58 51 51 55 52 50 50 60 65 65 63 57 55 58 61 56 57 40 23 23 30 29
17 10 8 10 9 3 8 8 4 4 4 6 5 8 4 7 13 10 6 17 44 50 62 63 54 54 51 53 57 57 54 50 52 54 43 45 47 56 55 55 54 58 53 54 51 44 43 49 54 52 53 29 29 28
7 6 10 17 17 15 8 3 7 3 3 4 5 7 6 7 5 7 5 15 29 30 37 54 49 45 45 41 44 47 45 49 47 58 54 49 50 49 45 47 53 55 52 49 58 57 48 33 40 48 32 38 19 32
10 27 22 12 11 4 9 9 8 7 6 6 10 9 9 9 7 4 4 9 17 25 39 47 43 40 39 31 36 44 49 42 40 52 52 51 51 51 56 58 54 50 45 40 44 48 46 39 45 46 41 41 26 32
7 8 14 13 13 17 11 4 6 10 8 7 6 6 5 7 2 4 8 10 24 38 42 37 30 33 29 27 31 35 38 33 36 35 34 38 36 38 43 49 47 40 38 35 39 37 37 35 38 38 37 43 40 34
4 17 10 8 11 8 6 3 6 8 5 10 10 6 4 2 7 4 6 18 28 33 26 24 26 31 33 30 31 34 39 37 26 28 22 34 43 31 22 25 26 23 21 29 30 24 26 23 25 30 27 29 34 31
8 13 10 5 6 4 7 6 6 8 6 7 7 4 6 7 12 5 14 23 31 23 21 14 17 14 21 32 24 32 35 38 46 55 55 52 50 43 32 27 30 30 28 24 33 25 25 21 18 22 29 30 23 20
11 18 10 5 3 2 5 7 14 8 11 18 24 27 21 12 8 9 16 26 14 20 17 16 17 17 20 21 25 22 26 31 42 47 50 44 36 25 27 31 27 23 28 26 19 17 15 15 17 21 18 17 26 26
9 13 9 7 4 15 24 22 25 29 30 28 22 24 14 6 5 13 22 15 13 15 17 15 16 13 16 19 19 19 16 23 33 39 42 42 40 31 34 28 24 27 25 23 21 22 23 22 22 21 22 26 27 32
13 9 12 6 10 33 36 35 32 23 26 19 9 6 6 8 2 5 12 14 13 12 13 11 9 10 15 22 28 18 21 16 23 31 34 40 40 33 32 23 25 28 24 23 23 22 23 24 28 30 30 27 30 30
14 7 8 14 16 20 22 27 21 11 12 10 7 14 10 6 3 3 8 14 11 9 11 14 15 12 14 21 22 19 21 11 19 25 32 36 34 34 25 25 23 26 23 27 28 30 28 28 30 29 28 27 29 26
Wind_Direction_500mb
326 324 321 319 320 320 319 317 318 319 321 321 324 325 318 323 325 318 324 242 241 261 275 279 280 281 300 307 323 324 343 358 9 35 30 328 350 325 9 337 328 75 302 194 85 85 68 346 36 81 300 318 2 9
327 324 321 319 317 315 314 314 315 315 318 318 319 317 312 315 313 310 318 232 257 263 250 265 280 279 274 271 271 282 271 300 267 69 11 334 332 355 333 328 335 59 117 271 27 71 10 40 60 17 7 2 357 348
329 326 322 319 317 315 312 311 311 312 313 314 315 314 308 298 305 300 303 316 255 287 293 276 288 344 308 289 267 232 267 282 7 17 167 250 339 47 358 352 323 341 4 311 350 18 343 23 13 9 9 2 2 9
329 327 325 322 317 313 313 313 312 312 312 313 315 308 292 300 293 288 287 277 269 275 281 291 322 297 281 284 277 255 255 281 273 276 183 152 312 358 290 269 270 236 327 310 300 356 351 345 349 346 351 355 360 360
333 328 326 326 323 316 313 313 314 315 315 313 315 308 288 287 286 288 285 277 241 233 272 298 303 300 278 248 256 255 263 251 259 239 178 213 222 292 264 249 237 202 235 65 286 333 314 305 325 341 343 341 351 346
336 331 328 329 328 323 316 316 317 318 316 314 313 304 302 288 276 277 280 238 213 235 264 298 297 305 274 231 250 243 252 247 243 240 232 239 255 248 273 245 245 357 320 316 283 308 308 305 318 332 338 344 343 342
339 337 334 332 331 329 325 320 320 321 318 316 315 312 295 278 239 230 212 164 212 245 284 293 289 284 330 274 224 241 234 239 252 237 230 247 256 263 248 269 266 276 282 297 296 311 307 303 306 322 332 342 339 350
343 342 341 339 337 336 332 326 326 325 325 323 320 317 297 262 233 254 253 204 192 205 236 269 271 305 12 336 290 230 242 236 233 237 232 227 250 216 255 236 261 263 265 268 273 285 289 296 304 313 323 334 342 356
347 346 348 347 350 349 340 335 333 334 331 333 344 354 358 214 223 262 287 260 253 219 250 231 247 277 3 17 299 277 198 321 237 207 229 220 223 224 229 227 245 252 251 261 262 264 273 285 293 305 318 332 338 341
349 351 352 356 1 356 352 353 354 346 347 355 336 354 318 308 290 286 54 150 165 196 231 248 243 270 348 4 343 302 240 211 238 236 217 220 245 245 244 248 255 257 259 260 254 268 276 281 286 305 306 316 323 323
349 354 355 2 4 0 356 352 353 356 357 3 340 319 309 320 73 58 110 172 209 254 230 243 230 254 273 265 249 263 282 306 266 257 177 240 254 242 247 245 249 250 248 246 253 249 255 266 272 289 300 302 312 312
347 354 0 3 4 360 355 347 352 355 357 329 313 304 307 24 47 333 243 172 224 250 227 219 233 216 250 258 220 249 257 222 252 335 255 252 250 202 297 251 248 252 245 244 242 246 254 253 265 280 280 287 295 290
345 346 348 355 0 0 353 346 349 359 2 7 359 325 334 28 346 350 321 234 234 210 214 201 205 215 216 231 248 268 245 254 344 241 242 248 301 299 288 284 281 271 269 245 233 234 248 258 259 271 280 282 278 240
345 345 349 358 8 4 357 354 358 5 17 18 357 340 33 345 339 283 285 316 319 197 193 192 198 203 192 174 328 256 249 322 279 260 258 286 290 287 270 263 256 266 260 245 224 228 233 251 264 271 275 275 235 195
345 343 351 352 354 357 347 348 359 359 24 17 4 14 347 328 1 0 1 9 5 218 160 191 228 132 20 303 219 304 282 273 274 287 273 292 329 11 32 208 225 229 241 188 226 227 234 240 235 227 230 214 186 180
342 346 354 337 336 351 345 353 350 20 28 30 358 348 352 7 6 17 16 7 1 346 194 239 190 202 173 197 7 339 341 8 326 307 2 2 25 31 54 72 129 143 163 143 168 181 175 170 174 157 161 165 156 157
346 346 344 350 354 336 336 354 358 22 23 15 322 346 5 25 18 11 12 13 8 14 11 11 6 4 309 351 359 128 20 118 2 357 5 35 44 40 49 58 71 89 108 112 113 129 128 122 120 120 104 95 112 128
346 338 337 347 355 31 358 11 81 35 350 336 334 6 40 47 40 36 33 29 22 13 9 18 331 14 24 23 49 25 45 32 1 4 25 37 54 62 60 52 56 62 78 86 93 101 106 102 101 101 106 105 96 89
337 335 339 350 359 345 337 171 130 146 248 351 7 80 60 52 50 48 41 38 43 43 33 35 41 17 15 4 11 30 45 49 43 46 45 48 57 51 61 67 70 66 68 70 75 80 87 89 93 93 89 102 93 97
341 330 350 352 341 347 337 251 305 193 201 122 109 89 73 61 61 62 52 46 41 41 48 50 44 30 34 34 37 51 65 52 48 50 49 61 64 51 42 54 58 57 67 68 71 67 66 69 70 83 102 95 84 83
6 344 355 9 24 7 354 336 349 30 337 238 167 140 93 79 65 61 53 48 43 33 23 38 48 46 48 50 53 50 46 46 44 48 52 57 55 59 58 52 56 55 49 48 54 56 59 57 69 65 56 79 95 94
4 17 15 34 47 91 52 9 317 313 358 349 78 270 154 122 96 71 57 42 37 17 10 16 44 45 40 41 43 52 47 46 50 62 78 63 58 56 54 50 52 53 51 46 53 56 60 55 52 84 75 68 88 87
1 16 4 328 296 64 19 334 304 12 56 310 345 81 49 52 359 13 65 23 14 10 25 36 40 46 42 37 36 38 42 47 47 60 65 66 58 48 41 43 43 43 42 37 38 48 58 63 61 60 76 102 45 83
352 1 340 339 348 298 204 226 222 122 204 291 324 105 85 58 46 46 65 11 11 29 33 31 36 38 44 41 41 37 30 33 47 58 66 66 60 57 56 51 41 38 35 33 31 27 32 48 58 59 60 80 79 84
9 32 13 4 3 355 309 141 166 113 302 206 30 71 54 64 69 50 39 348 27 39 21 15 26 33 43 51 49 46 34 31 58 59 61 64 65 63 56 50 45 36 27 22 23 24 32 43 45 50 59 52 88 75
64 40 11 303 311 49 325 1 5 339 21 66 48 57 51 59 57 40 278 273 313 326 346 357 11 21 51 54 47 44 42 54 74 63 64 68 63 55 49 47 41 38 33 26 22 26 33 40 40 43 58 74 90 70
77 136 222 252 288 294 290 240 26 38 49 56 46 34 67 68 56 255 293 328 339 8 11 24 40 50 60 49 37 33 31 42 71 54 43 39 39 39 41 38 32 29 40 37 26 31 30 32 39 56 55 72 82 82
342 184 197 239 223 252 250 61 57 25 68 102 91 47 104 110 196 182 10 32 16 11 25 68 70 59 50 38 29 33 33 26 36 24 10 9 23 28 32 23 16 3 10 28 25 23 25 37 55 71 63 59 60 67
237 210 202 296 327 11 36 66 75 44 40 93 106 121 143 142 149 113 31 8 354 43 105 73 56 48 60 57 38 29 32 26 21 22 21 14 5 7 358 1 5 358 357 7 24 45 51 62 58 63 66 62 63 56
242 190 168 175 190 324 56 104 116 119 130 142 127 123 125 130 125 34 351 346 88 59 51 54 52 40 49 45 42 32 20 18 20 29 30 25 12 352 336 342 346 1 23 38 33 26 19 22 30 32 39 36 24 12
226 186 185 144 153 145 141 129 117 117 117 124 141 139 136 156 119 39 54 75 39 27 39 34 52 56 49 41 29 9 19 33 32 28 27 26 23 22 18 20 33 34 40 27 27 28 23 28 33 32 27 28 33 47
198 220 157 132 123 153 149 153 151 149 149 144 157 156 91 124 113 105 23 353 328 348 39 39 27 38 22 23 21 25 17 18 26 20 25 26 28 30 31 43 41 38 27 32 37 49 52 51 52 53 52 42 31 26
155 107 114 128 142 178 189 173 166 125 130 148 136 153 167 197 212 125 31 6 16 38 44 27 34 36 27 25 32 37 18 17 26 30 28 24 22 22 32 42 40 32 43 50 46 41 47 46 39 36 38 29 17 16
Wind_Speed_850mb
57 57 56 56 54 53 52 51 50 49 48 46 41 42 38 34 28 29 24 15 24 18 50 60 36 29 33 15 2 26 20 17 12 12 8 7 6 7 9 8 12 3 6 5 5 6 8 61 21 15 9 18 25 49
61 60 58 58 57 56 55 54 52 51 51 48 46 37 39 34 27 27 26 7 18 35 38 35 52 58 52 47 37 10 13 16 4 7 6 4 6 7 9 6 11 6 8 7 6 7 9 41 34 39 42 35 51 48
64 63 61 59 57 56 57 55 55 53 53 52 48 37 38 29 27 27 28 18 23 26 53 36 28 15 25 31 37 19 17 8 9 6 5 4 3 4 6 6 9 12 19 4 11 8 23 53 64 83 69 60 59 52
67 65 62 59 57 55 55 54 54 54 53 50 45 36 32 30 26 28 28 13 15 13 9 20 25 28 23 31 23 42 42 28 34 20 3 3 2 3 4 8 3 9 21 11 11 16 45 45 76 77 71 72 62 50
68 65 62 59 56 53 52 51 51 50 49 48 41 31 30 29 25 28 29 25 29 20 8 32 66 27 23 28 29 20 35 47 49 11 4 6 8 6 9 3 7 11 6 5 7 17 7 42 73 67 65 67 68 60
70 64 59 57 55 50 48 48 47 45 46 48 37 34 34 30 21 21 7 4 25 28 13 7 22 42 19 32 32 38 40 42 48 25 12 14 31 14 7 6 13 2 28 47 15 51 57 64 61 58 71 59 66 59
68 63 57 53 52 48 45 44 43 42 42 43 43 40 29 22 23 21 7 12 11 13 6 10 13 13 30 4 27 28 40 37 34 44 23 25 36 24 6 24 40 50 52 47 42 53 61 58 62 73 63 56 61 48
65 63 58 51 47 46 43 41 39 39 41 43 42 28 18 14 22 29 33 22 12 8 8 5 8 13 13 8 6 30 27 37 44 34 28 21 13 15 12 22 58 59 52 57 60 53 59 56 62 62 56 57 57 49
64 62 54 45 43 42 38 37 37 38 37 31 22 16 5 4 8 13 19 17 25 20 6 7 3 6 10 8 11 5 7 2 11 7 15 12 11 12 18 44 68 53 32 39 44 46 60 65 60 58 42 45 51 49
60 57 47 45 43 39 39 43 42 40 31 18 16 8 5 4 7 6 5 6 7 10 11 7 8 7 17 11 5 8 3 6 4 10 16 15 32 71 72 71 71 55 46 57 69 64 62 62 56 53 44 49 48 49
55 50 43 41 42 40 40 40 38 37 24 14 11 6 13 6 2 3 3 2 3 6 10 10 18 12 17 2 4 6 4 5 6 8 10 8 11 35 80 85 97 88 78 76 63 60 65 64 67 57 57 57 57 49
50 40 36 39 41 40 41 44 44 41 26 15 16 18 9 4 3 2 2 2 7 5 7 7 11 15 8 7 6 5 4 5 9 12 6 8 6 6 9 23 37 46 65 84 84 88 77 78 67 57 55 60 60 40
50 34 32 34 37 37 40 45 46 45 27 11 11 7 3 4 5 6 8 4 6 11 15 14 7 7 7 9 5 4 6 7 14 6 7 8 25 59 67 62 51 40 40 60 87 75 58 57 53 52 59 60 58 36
47 32 23 25 28 37 41 44 51 39 16 12 12 12 8 9 9 5 6 10 11 12 16 13 4 8 8 5 4 5 2 4 6 6 8 12 72 84 85 74 49 50 35 34 62 62 72 52 48 49 47 39 37 61
44 29 18 19 24 35 38 42 43 34 14 14 11 12 7 16 26 32 28 31 23 6 23 6 4 4 4 3 2 5 4 6 5 7 7 52 73 55 5 24 40 37 23 13 33 61 58 50 35 33 27 37 54 67
40 25 23 21 24 29 31 31 28 21 10 12 13 10 31 16 24 42 54 55 55 8 20 8 4 4 5 4 5 7 10 11 12 8 36 57 79 73 62 35 19 19 18 22 25 31 43 43 42 41 41 44 48 56
34 23 26 26 27 22 21 16 12 14 14 7 10 21 30 31 34 40 45 53 50 31 7 8 13 12 6 9 9 5 2 2 24 40 38 62 76 81 86 70 59 56 54 54 55 62 65 64 65 60 58 56 59 55
35 26 22 23 28 9 9 3 2 8 7 5 8 30 35 45 48 53 55 55 41 38 14 8 9 13 11 16 15 16 22 23 23 21 33 42 45 72 88 86 80 71 76 75 74 65 62 57 57 45 44 35 41 43
29 15 14 19 20 9 4 2 3 9 8 6 10 28 37 42 43 47 49 46 55 41 19 11 11 10 9 13 20 34 38 46 45 57 67 55 66 86 73 59 69 73 79 71 74 70 63 62 53 49 41 43 43 38
20 9 17 15 14 6 5 2 4 4 7 12 23 27 26 31 45 47 54 55 41 41 30 13 15 27 35 51 46 48 54 53 50 36 55 59 62 68 76 65 75 68 54 48 48 49 47 45 50 56 39 39 45 37
14 14 16 10 3 5 8 13 8 11 9 8 19 14 20 31 41 50 57 50 42 31 25 43 56 63 67 62 46 52 57 59 61 51 47 55 53 68 72 68 67 70 66 65 60 53 46 43 19 15 18 25 30 34
22 13 7 7 4 3 3 11 11 20 15 15 6 10 16 20 37 36 42 34 23 28 38 47 43 55 60 63 66 57 58 58 59 52 49 52 64 67 70 71 74 72 69 70 70 66 60 49 33 36 47 41 20 21
17 12 8 7 3 6 7 17 7 8 8 11 14 9 2 5 21 21 12 20 18 42 60 61 53 47 52 55 57 57 55 60 58 51 51 55 52 50 50 60 65 65 63 57 55 58 61 56 57 40 23 23 30 29
17 10 8 10 9 3 8 8 4 4 4 6 5 8 4 7 13 10 6 17 44 50 62 63 54 54 51 53 57 57 54 50 52 54 43 45 47 56 55 55 54 58 53 54 51 44 43 49 54 52 53 29 29 28
7 6 10 17 17 15 8 3 7 3 3 4 5 7 6 7 5 7 5 15 29 30 37 54 49 45 45 41 44 47 45 49 47 58 54 49 50 49 45 47 53 55 52 49 58 57 48 33 40 48 32 38 19 32
10 27 22 12 11 4 9 9 8 7 6 6 10 9 9 9 7 4 4 9 17 25 39 47 43 40 39 31 36 44 49 42 40 52 52 51 51 51 56 58 54 50 45 40 44 48 46 39 45 46 41 41 26 32
7 8 14 13 13 17 11 4 6 10 8 7 6 6 5 7 2 4 8 10 24 38 42 37 30 33 29 27 31 35 38 33 36 35 34 38 36 38 43 49 47 40 38 35 39 37 37 35 38 38 37 43 40 34
4 17 10 8 11 8 6 3 6 8 5 10 10 6 4 2 7 4 6 18 28 33 26 24 26 31 33 30 31 34 39 37 26 28 22 34 43 31 22 25 26 23 21 29 30 24 26 23 25 30 27 29 34 31
8 13 10 5 6 4 7 6 6 8 6 7 7 4 6 7 12 5 14 23 31 23 21 14 17 14 21 32 24 32 35 38 46 55 55 52 50 43 32 27 30 30 28 24 33 25 25 21 18 22 29 30 23 20
11 18 10 5 3 2 5 7 14 8 11 18 24 27 21 12 8 9 16 26 14 20 17 16 17 17 20 21 25 22 26 31 42 47 50 44 36 25 27 31 27 23 28 26 19 17 15 15 17 21 18 17 26 26
9 13 9 7 4 15 24 22 25 29 30 28 22 24 14 6 5 13 22 15 13 15 17 15 16 13 16 19 19 19 16 23 33 39 42 42 40 31 34 28 24 27 25 23 21 22 23 22 22 21 22 26 27 32
13 9 12 6 10 33 36 35 32 23 26 19 9 6 6 8 2 5 12 14 13 12 13 11 9 10 15 22 28 18 21 16 23 31 34 40 40 33 32 23 25 28 24 23 23 22 23 24 28 30 30 27 30 30
14 7 8 14 16 20 22 27 21 11 12 10 7 14 10 6 3 3 8 14 11 9 11 14 15 12 14 21 22 19 21 11 19 25 32 36 34 34 25 25 23 26 23 27 28 30 28 28 30 29 28 27 29 26
Wind_Direction_850mb
326 324 321 319 320 320 319 317 318 319 321 321 324 325 318 323 325 318 324 242 241 261 275 279 280 281 300 307 323 324 343 358 9 35 30 328 350 325 9 337 328 75 302 194 85 85 68 346 36 81 300 318 2 9
327 324 321 319 317 315 314 314 315 315 318 318 319 317 312 315 313 310 318 232 257 263 250 265 280 279 274 271 271 282 271 300 267 69 11 334 332 355 333 328 335 59 117 271 27 71 10 40 60 17 7 2 357 348
329 326 322 319 317 315 312 311 311 312 313 314 315 314 308 298 305 300 303 316 255 287 293 276 288 344 308 289 267 232 267 282 7 17 167 250 339 47 358 352 323 341 4 311 350 18 343 23 13 9 9 2 2 9
329 327 325 322 317 313 313 313 312 312 312 313 315 308 292 300 293 288 287 277 269 275 281 291 322 297 281 284 277 255 255 281 273 276 183 152 312 358 290 269 270 236 327 310 300 356 351 345 349 346 351 355 360 360
333 328 326 326 323 316 313 313 314 315 315 313 315 308 288 287 286 288 285 277 241 233 272 298 303 300 278 248 256 255 263 251 259 239 178 213 222 292 264 249 237 202 235 65 286 333 314 305 325 341 343 341 351 346
336 331 328 329 328 323 316 316 317 318 316 314 313 304 302 288 276 277 280 238 213 235 264 298 297 305 274 231 250 243 252 247 243 240 232 239 255 248 273 245 245 357 320 316 283 308 308 305 318 332 338 344 343 342
339 337 334 332 331 329 325 320 320 321 318 316 315 312 295 278 239 230 212 164 212 245 284 293 289 284 330 274 224 241 234 239 252 237 230 247 256 263 248 269 266 276 282 297 296 311 307 303 306 322 332 342 339 350
343 342 341 339 337 336 332 326 326 325 325 323 320 317 297 262 233 254 253 204 192 205 236 269 271 305 12 336 290 230 242 236 233 237 232 227 250 216 255 236 261 263 265 268 273 285 289 296 304 313 323 334 342 356
347 346 348 347 350 349 340 335 333 334 331 333 344 354 358 214 223 262 287 260 253 219 250 231 247 277 3 17 299 277 198 321 237 207 229 220 223 224 229 227 245 252 251 261 262 264 273 285 293 305 318 332 338 341
349 351 352 356 1 356 352 353 354 346 347 355 336 354 318 308 290 286 54 150 165 196 231 248 243 270 348 4 343 302 240 211 238 236 217 220 245 245 244 248 255 257 259 260 254 268 276 281 286 305 306 316 323 323
349 354 355 2 4 0 356 352 353 356 357 3 340 319 309 320 73 58 110 172 209 254 230 243 230 254 273 265 249 263 282 306 266 257 177 240 254 242 247 245 249 250 248 246 253 249 255 266 272 289 300 302 312 312
347 354 0 3 4 360 355 347 352 355 357 329 313 304 307 24 47 333 243 172 224 250 227 219 233 216 250 258 220 249 257 222 252 335 255 252 250 202 297 251 248 252 245 244 242 246 254 253 265 280 280 287 295 290
345 346 348 355 0 0 353 346 349 359 2 7 359 325 334 28 346 350 321 234 234 210 214 201 205 215 216 231 248 268 245 254 344 241 242 248 301 299 288 284 281 271 269 245 233 234 248 258 259 271 280 282 278 240
345 345 349 358 8 4 357 354 358 5 17 18 357 340 33 345 339 283 285 316 319 197 193 192 198 203 192 174 328 256 249 322 279 260 258 286 290 287 270 263 256 266 260 245 224 228 233 251 264 271 275 275 235 195
345 343 351 352 354 357 347 348 359 359 24 17 4 14 347 328 1 0 1 9 5 218 160 191 228 132 20 303 219 304 282 273 274 287 273 292 329 11 32 208 225 229 241 188 226 227 234 240 235 227 230 214 186 180
342 346 354 337 336 351 345 353 350 20 28 30 358 348 352 7 6 17 16 7 1 346 194 239 190 202 173 197 7 339 341 8 326 307 2 2 25 31 54 72 129 143 163 143 168 181 175 170 174 157 161 165 156 157
346 346 344 350 354 336 336 354 358 22 23 15 322 346 5 25 18 11 12 13 8 14 11 11 6 4 309 351 359 128 20 118 2 357 5 35 44 40 49 58 71 89 108 112 113 129 128 122 120 120 104 95 112 128
346 338 337 347 355 31 358 11 81 35 350 336 334 6 40 47 40 36 33 29 22 13 9 18 331 14 24 23 49 25 45 32 1 4 25 37 54 62 60 52 56 62 78 86 93 101 106 102 101 101 106 105 96 89
337 335 339 350 359 345 337 171 130 146 248 351 7 80 60 52 50 48 41 38 43 43 33 35 41 17 15 4 11 30 45 49 43 46 45 48 57 51 61 67 70 66 68 70 75 80 87 89 93 93 89 102 93 97
341 330 350 352 341 347 337 251 305 193 201 122 109 89 73 61 61 62 52 46 41 41 48 50 44 30 34 34 37 51 65 52 48 50 49 61 64 51 42 54 58 57 67 68 71 67 66 69 70 83 102 95 84 83
6 344 355 9 24 7 354 336 349 30 337 238 167 140 93 79 65 61 53 48 43 33 23 38 48 46 48 50 53 50 46 46 44 48 52 57 55 59 58 52 56 55 49 48 54 56 59 57 69 65 56 79 95 94
4 17 15 34 47 91 52 9 317 313 358 349 78 270 154 122 96 71 57 42 37 17 10 16 44 45 40 41 43 52 47 46 50 62 78 63 58 56 54 50 52 53 51 46 53 56 60 55 52 84 75 68 88 87
1 16 4 328 296 64 19 334 304 12 56 310 345 81 49 52 359 13 65 23 14 10 25 36 40 46 42 37 36 38 42 47 47 60 65 66 58 48 41 43 43 43 42 37 38 48 58 63 61 60 76 102 45 83
352 1 340 339 348 298 204 226 222 122 204 291 324 105 85 58 46 46 65 11 11 29 33 31 36 38 44 41 41 37 30 33 47 58 66 66 60 57 56 51 41 38 35 33 31 27 32 48 58 59 60 80 79 84
9 32 13 4 3 355 309 141 166 113 302 206 30 71 54 64 69 50 39 348 27 39 21 15 26 33 43 51 49 46 34 31 58 59 61 64 65 63 56 50 45 36 27 22 23 24 32 43 45 50 59 52 88 75
64 40 11 303 311 49 325 1 5 339 21 66 48 57 51 59 57 40 278 273 313 326 346 357 11 21 51 54 47 44 42 54 74 63 64 68 63 55 49 47 41 38 33 26 22 26 33 40 40 43 58 74 90 70
77 136 222 252 288 294 290 240 26 38 49 56 46 34 67 68 56 255 293 328 339 8 11 24 40 50 60 49 37 33 31 42 71 54 43 39 39 39 41 38 32 29 40 37 26 31 30 32 39 56 55 72 82 82
342 184 197 239 223 252 250 61 57 25 68 102 91 47 104 110 196 182 10 32 16 11 25 68 70 59 50 38 29 33 33 26 36 24 10 9 23 28 32 23 16 3 10 28 25 23 25 37 55 71 63 59 60 67
237 210 202 296 327 11 36 66 75 44 40 93 106 121 143 142 149 113 31 8 354 43 105 73 56 48 60 57 38 29 32 26 21 22 21 14 5 7 358 1 5 358 357 7 24 45 51 62 58 63 66 62 63 56
242 190 168 175 190 324 56 104 116 119 130 142 127 123 125 130 125 34 351 346 88 59 51 54 52 40 49 45 42 32 20 18 20 29 30 25 12 352 336 342 346 1 23 38 33 26 19 22 30 32 39 36 24 12
226 186 185 144 153 145 141 129 117 117 117 124 141 139 136 156 119 39 54 75 39 27 39 34 52 56 49 41 29 9 19 33 32 28 27 26 23 22 18 20 33 34 40 27 27 28 23 28 33 32 27 28 33 47
198 220 157 132 123 153 149 153 151 149 149 144 157 156 91 124 113 105 23 353 328 348 39 39 27 38 22 23 21 25 17 18 26 20 25 26 28 30 31 43 41 38 27 32 37 49 52 51 52 53 52 42 31 26
155 107 114 128 142 178 189 173 166 125 130 148 136 153 167 197 212 125 31 6 16 38 44 27 34 36 27 25 32 37 18 17 26 30 28 24 22 22 32 42 40 32 43 50 46 41 47 46 39 36 38 29 17 16